Location: Brachbach
(49.1847°N, 9.7240°E)
Time: 21:37:45
(UTC+00:00)

MOZHAYETS 4 - Visible Passes

Search period start: 16 March 2026 00:00
Search period end: 26 March 2026 00:00
Orbit: 643 x 658 km, 98.3° (Epoch: 16 March)

Date Brightness Start Highest point End Pass type
(mag) Time Alt. Az. Time Alt. Az. Time Alt. Az.
16 Mar 11.0 02:28:26 10° ENE 02:30:08 12° NE 02:31:49 10° NNE visible
16 Mar 7.9 04:01:31 10° SSE 04:06:01 76° ENE 04:10:34 10° NNW visible
16 Mar 10.8 19:03:50 10° NNW 19:06:15 14° NW 19:08:40 10° W visible
17 Mar 10.4 02:53:18 10° ESE 02:56:29 19° ENE 02:59:40 10° NNE visible
17 Mar 7.7 04:28:15 10° S 04:32:44 62° WSW 04:37:15 10° NNW visible
18 Mar 9.6 03:18:58 10° SE 03:22:56 31° ENE 03:26:54 10° N visible
18 Mar 8.3 04:55:24 10° SSW 04:59:33 35° W 05:03:42 10° NNW visible
18 Mar 9.8 18:19:25 10° N 18:23:24 32° WNW 18:27:20 10° SW visible
19 Mar 8.6 03:45:05 10° SE 03:49:28 52° ENE 03:53:53 10° N visible
19 Mar 10.6 18:46:38 10° NNW 18:49:51 20° WNW 18:53:01 10° WSW visible
20 Mar 10.9 02:37:42 10° E 02:40:05 14° NE 02:42:26 10° NNE visible
20 Mar 7.7 04:11:34 10° SSE 04:16:06 89° W 04:20:39 10° NNW visible
20 Mar 11.0 19:14:26 10° NNW 19:16:11 12° NW 19:17:56 10° WNW visible
21 Mar 10.2 03:02:56 10° ESE 03:06:27 23° ENE 03:09:58 10° N visible
21 Mar 7.9 04:38:26 10° S 04:42:50 50° W 04:47:14 10° NNW visible
21 Mar 9.1 18:02:36 10° N 18:06:52 44° WNW 18:11:06 10° SW visible
22 Mar 9.3 03:28:47 10° SE 03:32:55 37° ENE 03:37:04 10° N visible
22 Mar 10.1 18:29:38 10° N 18:33:22 26° WNW 18:37:04 10° WSW visible
23 Mar 11.2 02:23:04 10° ENE 02:23:41 10° NE 02:24:19 10° NE visible
23 Mar 8.2 03:55:02 10° SSE 03:59:29 64° ENE 04:03:58 10° N visible
23 Mar 10.8 18:56:58 10° NNW 18:59:46 17° WNW 19:02:33 10° W visible
24 Mar 10.7 02:47:09 10° E 02:49:59 17° ENE 02:52:50 10° NNE visible
24 Mar 7.6 04:21:38 10° S 04:26:08 73° WSW 04:30:40 10° NNW visible
24 Mar 11.4 19:25:43 10° NW 19:26:04 10° NW 19:26:25 10° WNW visible
25 Mar 10.0 03:12:37 10° ESE 03:16:23 27° ENE 03:20:10 10° N visible
25 Mar 9.5 18:12:43 10° N 18:16:50 37° WNW 18:20:55 10° SW visible
